EW1134 Weather Reports


Display with metric or nautical units.
time (UTC)temp
F
wind
direction
speed
MPH
gust
MPH
rain 1hr
in
rain 24hr
in
rain mn
in
humidity
%
barometer
mb
20260508100504 72 226 2.0 6.0 0.00 0.00 0.00 33 1016.9
20260508100005 72 232 3.0 6.0 0.00 0.00 0.00 32 1017.2
20260508095504 72 222 2.0 7.0 0.00 0.00 0.00 32 1017.1
20260508095004 72 167 3.0 11.0 0.00 0.00 0.00 32 1017.3
20260508094504 72 173 3.0 11.0 0.00 0.00 0.00 32 1017.2
20260508094004 72 258 2.0 7.0 0.00 0.00 0.00 33 1017.5
20260508093504 72 275 2.0 7.0 0.00 0.00 0.00 34 1017.7
20260508093005 72 279 2.0 6.0 0.00 0.00 0.00 35 1017.7
20260508092504 72 305 2.0 6.0 0.00 0.00 0.00 36 1017.8
20260508092004 72 281 2.0 7.0 0.00 0.00 0.00 35 1017.9
20260508091004 71 286 2.0 9.0 0.00 0.00 0.00 35 1018.0
20260508090504 71 273 3.0 9.0 0.00 0.00 0.00 35 1018.0
20260508090005 70 262 2.0 8.0 0.00 0.00 0.00 35 1018.0
20260508085504 70 284 2.0 8.0 0.00 0.00 0.00 35 1017.9
20260508085004 71 292 2.0 6.0 0.00 0.00 0.00 34 1017.9
20260508084505 71 280 2.0 9.0 0.00 0.00 0.00 33 1017.6
20260508084004 71 274 3.0 9.0 0.00 0.00 0.00 32 1017.6
20260508083504 71 242 2.0 9.0 0.00 0.00 0.00 31 1017.2
20260508083005 72 177 2.0 5.0 0.00 0.00 0.00 31 1017.5
20260508082504 72 238 2.0 6.0 0.00 0.00 0.00 31 1017.4
20260508082004 72 237 2.0 8.0 0.00 0.00 0.00 30 1017.6
20260508081004 72 224 6.0 15.0 0.00 0.00 0.00 27 1017.6
20260508080005 72 184 3.0 11.0 0.00 0.00 0.00 28 1017.5
20260508075505 72 214 3.0 10.0 0.00 0.00 0.00 30 1017.4
20260508075003 72 261 2.0 7.0 0.00 0.00 0.00 31 1017.5
20260508074004 72 239 2.0 9.0 0.00 0.00 0.00 32 1017.9
20260508073504 72 259 2.0 8.0 0.00 0.00 0.00 32 1017.7
20260508073005 71 279 3.0 8.0 0.00 0.00 0.00 33 1018.0
20260508072504 71 282 2.0 7.0 0.00 0.00 0.00 33 1018.0
20260508072004 71 270 2.0 7.0 0.00 0.00 0.00 34 1018.0
20260508071504 70 270 2.0 7.0 0.00 0.00 0.00 34 1017.8
20260508071004 70 276 4.0 13.0 0.00 0.00 0.00 34 1018.0
20260508070006 69 279 3.0 12.0 0.00 0.00 0.00 36 1018.3
20260508065504 69 267 2.0 9.0 0.00 0.00 0.00 39 1018.1
20260508065004 68 245 3.0 11.0 0.00 0.00 0.00 39 1018.1
20260508064505 67 258 2.0 11.0 0.00 0.00 0.00 42 1018.2
20260508064004 67 312 2.0 7.0 0.00 0.00 0.00 47 1018.1
20260508063504 66 301 2.0 7.0 0.00 0.00 0.00 49 1018.1
20260508063005 65 262 1.0 4.0 0.00 0.00 0.00 55 1018.2
20260508062004 65 210 1.0 5.0 0.00 0.00 0.00 60 1018.1
20260508061504 65 285 1.0 4.0 0.00 0.00 0.00 62 1018.1
20260508060504 64 345 2.0 4.0 0.00 0.00 0.00 65 1018.0
20260508060005 64 337 1.0 5.0 0.00 0.00 0.00 66 1017.8
20260508055504 64 323 2.0 7.0 0.00 0.00 0.00 67 1017.7
20260508055004 63 300 3.0 7.0 0.00 0.00 0.00 68 1017.4
20260508054004 62 73 1.0 5.0 0.00 0.00 0.00 69 1017.1
20260508053504 62 71 1.0 5.0 0.00 0.00 0.00 70 1017.0
20260508053004 62 73 1.0 4.0 0.00 0.00 0.00 70 1016.6
20260508052504 61 84 2.0 4.0 0.00 0.00 0.00 71 1016.7
20260508052004 61 144 1.0 4.0 0.00 0.00 0.00 71 1016.6
20260508051504 61 136 1.0 4.0 0.00 0.00 0.00 71 1016.7
20260508051005 60 102 1.0 4.0 0.00 0.00 0.00 72 1016.6
20260508050004 60 354 2.0 5.0 0.00 0.00 0.00 73 1016.5
20260508045504 59 17 1.0 4.0 0.00 0.00 0.00 74 1016.5
20260508044504 59 238 1.0 5.0 0.00 0.00 0.00 74 1016.6
20260508043005 59 203 0.0 5.0 0.00 0.00 0.00 76 1016.4
20260508042504 59 235 0.0 4.0 0.00 0.00 0.00 76 1016.2
20260508042004 59 229 1.0 4.0 0.00 0.00 0.00 76 1016.1
20260508041505 59 207 0.0 4.0 0.00 0.00 0.00 76 1016.3
20260508040504 59 206 0.0 4.0 0.00 0.00 0.00 76 1016.1
20260508040004 59 230 0.0 3.0 0.00 0.00 0.00 75 1016.1
20260508035505 59 222 0.0 3.0 0.00 0.00 0.00 75 1016.0
20260508035005 59 239 0.0 2.0 0.00 0.00 0.00 75 1015.8
20260508034504 59 223 1.0 5.0 0.00 0.00 0.00 75 1015.8
20260508033504 59 226 1.0 6.0 0.00 0.00 0.00 75 1015.9
20260508033004 59 336 0.0 3.0 0.00 0.00 0.00 75 1016.1
20260508032503 59 17 0.0 3.0 0.00 0.00 0.00 75 1015.9
20260508032004 59 184 0.0 2.0 0.00 0.00 0.00 75 1016.0
20260508031505 59 200 0.0 2.0 0.00 0.00 0.00 75 1015.8
20260508031005 59 206 0.0 3.0 0.00 0.00 0.00 75 1015.8
20260508030005 59 21 1.0 4.0 0.00 0.00 0.00 75 1015.8
20260508025504 59 78 1.0 4.0 0.00 0.00 0.00 75 1015.6
20260508025004 59 87 1.0 4.0 0.00 0.00 0.00 75 1015.8
20260508024504 59 50 1.0 4.0 0.00 0.00 0.00 75 1016.0
20260508024004 59 225 1.0 4.0 0.00 0.00 0.00 75 1016.0
20260508023504 59 212 1.0 4.0 0.00 0.00 0.00 75 1016.0
20260508023004 59 204 1.0 4.0 0.00 0.00 0.00 74 1016.1
20260508022504 59 290 0.0 4.0 0.00 0.00 0.00 75 1016.1
20260508021005 59 28 0.0 4.0 0.00 0.00 0.00 75 1016.1
20260508020004 59 103 0.0 3.0 0.00 0.00 0.00 75 1016.1
20260508015504 59 0 0.0 0.0 0.00 0.00 0.00 74 1016.0
20260508015004 59 0 0.0 0.0 0.00 0.00 0.00 74 1016.1
20260508014504 59 0 0.0 0.0 0.00 0.00 0.00 74 1016.1
20260508014004 59 0 0.0 0.0 0.00 0.00 0.00 74 1016.2
20260508013005 59 23 0.0 2.0 0.00 0.00 0.00 73 1016.2
20260508012504 59 0 0.0 0.0 0.00 0.00 0.00 74 1016.1
20260508012004 59 0 0.0 0.0 0.00 0.00 0.00 74 1016.5
20260508011004 59 106 0.0 2.0 0.00 0.00 0.00 74 1016.5
20260508010504 59 90 0.0 2.0 0.00 0.00 0.00 74 1016.2
20260508010005 59 76 0.0 2.0 0.00 0.00 0.00 74 1016.4
20260508005504 59 129 0.0 2.0 0.00 0.00 0.00 75 1016.6
20260508005004 60 104 0.0 4.0 0.00 0.00 0.00 75 1016.6
20260508004505 60 112 1.0 4.0 0.00 0.00 0.00 75 1016.9
20260508004004 60 115 1.0 4.0 0.00 0.00 0.00 76 1016.8
20260508003006 60 93 1.0 3.0 0.00 0.00 0.00 76 1016.8
20260508002504 60 109 1.0 3.0 0.00 0.00 0.00 76 1016.9
20260508002004 60 113 1.0 3.0 0.00 0.00 0.00 76 1016.7
20260508001505 60 95 0.0 3.0 0.00 0.00 0.00 76 1016.6
20260508001004 60 90 0.0 2.0 0.00 0.00 0.00 76 1016.8
20260508000504 60 90 0.0 2.0 0.00 0.00 0.00 75 1016.9
20260508000005 60 0 0.0 0.0 0.00 0.00 0.00 75 1016.8
20260507235504 60 0 0.0 0.0 0.00 0.00 0.00 75 1016.8
20260507235004 60 7 0.0 2.0 0.00 0.00 0.00 75 1016.9
20260507234504 60 6 0.0 2.0 0.00 0.00 0.00 75 1017.2
20260507234004 60 1 0.0 2.0 0.00 0.00 0.00 75 1017.1
20260507233504 60 0 0.0 0.0 0.00 0.00 0.00 74 1017.3
20260507233005 60 0 0.0 0.0 0.00 0.00 0.00 74 1017.3
20260507232504 60 0 0.0 0.0 0.00 0.00 0.00 74 1017.4
20260507232004 60 0 0.0 0.0 0.00 0.00 0.00 74 1017.4
20260507231505 60 90 0.0 1.0 0.00 0.00 0.00 74 1017.2
20260507231004 60 25 0.0 3.0 0.00 0.00 0.00 73 1017.2
20260507230504 61 24 0.0 3.0 0.00 0.00 0.00 73 1017.2
20260507230005 61 135 0.0 1.0 0.00 0.00 0.00 73 1017.4
20260507225004 61 123 0.0 3.0 0.00 0.00 0.00 72 1017.4
20260507224004 61 89 1.0 4.0 0.00 0.00 0.00 71 1017.5
20260507223004 62 86 0.0 3.0 0.00 0.00 0.00 69 1017.5
20260507222504 62 121 1.0 3.0 0.00 0.00 0.00 69 1017.4
20260507221505 62 133 1.0 4.0 0.00 0.00 0.00 68 1017.5
20260507220505 62 28 1.0 4.0 0.00 0.00 0.00 67 1017.5
20260507220005 62 41 1.0 4.0 0.00 0.00 0.00 67 1017.7
20260507215504 62 30 1.0 4.0 0.00 0.00 0.00 67 1017.6
20260507214504 62 336 2.0 7.0 0.00 0.00 0.00 67 1017.8
20260507214004 62 327 2.0 8.0 0.00 0.00 0.00 68 1017.7
20260507213504 62 323 1.0 8.0 0.00 0.00 0.00 68 1017.7
20260507213005 62 317 1.0 5.0 0.00 0.00 0.00 69 1017.7
20260507212005 62 316 2.0 6.0 0.00 0.00 0.00 69 1017.7
20260507211004 62 306 0.0 3.0 0.00 0.00 0.00 69 1017.8
20260507210504 62 341 0.0 3.0 0.00 0.00 0.00 69 1017.7
20260507210006 62 346 0.0 3.0 0.00 0.00 0.00 69 1017.8
20260507205504 62 337 1.0 4.0 0.00 0.00 0.00 69 1017.9
20260507204505 62 315 0.0 2.0 0.00 0.00 0.00 70 1017.7
20260507204005 62 323 1.0 4.0 0.00 0.00 0.00 70 1017.4
20260507203005 63 340 0.0 2.0 0.00 0.00 0.00 69 1017.4
20260507202504 63 357 0.0 2.0 0.00 0.00 0.00 69 1017.4
20260507202004 63 332 0.0 3.0 0.00 0.00 0.00 69 1017.7
20260507201504 63 311 0.0 3.0 0.00 0.00 0.00 68 1017.7
20260507200504 63 329 0.0 3.0 0.00 0.00 0.00 67 1017.7
20260507195503 63 304 0.0 5.0 0.00 0.00 0.00 66 1017.7
20260507195004 63 313 0.0 5.0 0.00 0.00 0.00 66 1017.6
20260507194505 63 314 0.0 3.0 0.00 0.00 0.00 65 1017.7
20260507194004 63 355 0.0 3.0 0.00 0.00 0.00 64 1017.7
20260507193504 63 30 0.0 3.0 0.00 0.00 0.00 64 1017.8
20260507193005 63 12 0.0 4.0 0.00 0.00 0.00 63 1017.9
20260507192504 63 339 1.0 4.0 0.00 0.00 0.00 63 1017.6
20260507192003 64 327 1.0 4.0 0.00 0.00 0.00 62 1017.6
20260507191505 64 340 0.0 3.0 0.00 0.00 0.00 62 1017.6
20260507191004 64 356 1.0 4.0 0.00 0.00 0.00 62 1017.6
20260507190504 64 13 1.0 4.0 0.00 0.00 0.00 61 1017.6
20260507185505 64 60 1.0 4.0 0.00 0.00 0.00 60 1017.6
20260507185004 64 76 1.0 4.0 0.00 0.00 0.00 60 1017.6
20260507184504 64 51 1.0 4.0 0.00 0.00 0.00 59 1017.6
20260507184003 64 7 2.0 4.0 0.00 0.00 0.00 59 1017.6
20260507183503 64 354 2.0 5.0 0.00 0.00 0.00 60 1017.3
20260507183004 65 335 2.0 5.0 0.00 0.00 0.00 60 1017.3
20260507182504 65 284 1.0 4.0 0.00 0.00 0.00 61 1017.4
20260507182004 65 283 1.0 7.0 0.00 0.00 0.00 61 1017.3
20260507181505 65 299 2.0 7.0 0.00 0.00 0.00 61 1017.3
20260507181004 65 300 2.0 6.0 0.00 0.00 0.00 60 1017.1
20260507180504 66 303 2.0 6.0 0.00 0.00 0.00 59 1017.2
20260507180005 66 310 3.0 8.0 0.00 0.00 0.00 58 1017.0
20260507175504 66 314 3.0 8.0 0.00 0.00 0.00 58 1017.1
20260507175003 66 318 4.0 8.0 0.00 0.00 0.00 58 1017.1
20260507174505 66 316 3.0 8.0 0.00 0.00 0.00 58 1017.3
20260507174005 67 308 2.0 6.0 0.00 0.00 0.00 58 1017.1
20260507173505 67 299 1.0 6.0 0.00 0.00 0.00 58 1016.8
20260507173005 67 290 1.0 5.0 0.00 0.00 0.00 57 1017.0
20260507172504 67 302 1.0 6.0 0.00 0.00 0.00 58 1017.1
20260507172004 67 309 1.0 6.0 0.00 0.00 0.00 57 1017.1
20260507171504 67 297 0.0 4.0 0.00 0.00 0.00 56 1016.8
20260507171004 67 270 0.0 3.0 0.00 0.00 0.00 55 1016.9
20260507170504 67 270 0.0 3.0 0.00 0.00 0.00 55 1016.9
20260507165504 67 273 1.0 4.0 0.00 0.00 0.00 54 1016.4
20260507165004 67 325 0.0 3.0 0.00 0.00 0.00 54 1016.6
20260507164004 68 60 2.0 5.0 0.00 0.00 0.00 54 1016.5
20260507163504 68 48 3.0 7.0 0.00 0.00 0.00 54 1016.5
20260507163005 68 37 3.0 7.0 0.00 0.00 0.00 54 1016.3
20260507162504 68 17 2.0 7.0 0.00 0.00 0.00 54 1016.2
20260507162004 68 22 3.0 13.0 0.00 0.00 0.00 54 1016.7
20260507161504 69 28 3.0 13.0 0.00 0.00 0.00 53 1016.6
20260507161004 70 18 2.0 9.0 0.00 0.00 0.00 50 1016.6
20260507160504 70 290 1.0 5.0 0.00 0.00 0.00 48 1016.7
20260507160005 71 313 2.0 9.0 0.00 0.00 0.00 47 1016.8
20260507155504 72 340 3.0 9.0 0.00 0.00 0.00 46 1016.9
20260507155004 73 348 2.0 8.0 0.00 0.00 0.00 44 1016.6
20260507154504 74 339 1.0 8.0 0.00 0.00 0.00 43 1016.5
20260507154004 75 311 1.0 4.0 0.00 0.00 0.00 40 1016.6
20260507153504 75 300 1.0 4.0 0.00 0.00 0.00 39 1016.7
20260507151506 74 353 1.0 6.0 0.00 0.00 0.00 43 1016.9
20260507150504 74 323 3.0 8.0 0.00 0.00 0.00 44 1017.0
20260507150005 74 337 3.0 8.0 0.00 0.00 0.00 44 1017.1
20260507145503 75 353 3.0 8.0 0.00 0.00 0.00 44 1016.9
20260507145004 75 354 3.0 7.0 0.00 0.00 0.00 44 1017.0
20260507144505 75 18 3.0 6.0 0.00 0.00 0.00 45 1016.8
20260507144004 75 36 2.0 9.0 0.00 0.00 0.00 44 1016.7
20260507143504 75 42 3.0 9.0 0.00 0.00 0.00 44 1016.9
20260507143005 75 41 3.0 8.0 0.00 0.00 0.00 43 1016.8
20260507142504 76 31 3.0 8.0 0.00 0.00 0.00 43 1016.8
20260507142004 76 1 3.0 8.0 0.00 0.00 0.00 43 1016.7
20260507141504 77 347 4.0 9.0 0.00 0.00 0.00 43 1016.7
20260507140504 78 6 3.0 9.0 0.00 0.00 0.00 39 1016.4
20260507140006 78 356 2.0 9.0 0.00 0.00 0.00 41 1016.4
20260507135504 78 15 3.0 9.0 0.00 0.00 0.00 42 1016.4
20260507135005 78 353 5.0 9.0 0.00 0.00 0.00 40 1016.3
20260507134004 78 7 4.0 9.0 0.00 0.00 0.00 40 1016.2
20260507133503 77 22 4.0 12.0 0.00 0.00 0.00 39 1016.2
20260507133004 78 36 4.0 12.0 0.00 0.00 0.00 38 1016.2
20260507132503 78 37 3.0 7.0 0.00 0.00 0.00 38 1016.1
20260507132003 77 355 3.0 7.0 0.00 0.00 0.00 40 1016.2
20260507131504 77 345 2.0 9.0 0.00 0.00 0.00 41 1016.1
20260507131003 76 33 4.0 11.0 0.00 0.00 0.00 41 1016.0
20260507130503 76 39 5.0 11.0 0.00 0.00 0.00 39 1016.1
20260507130005 76 15 4.0 11.0 0.00 0.00 0.00 39 1016.3
20260507125503 76 16 5.0 13.0 0.00 0.00 0.00 39 1016.2
20260507125004 77 50 5.0 13.0 0.00 0.00 0.00 40 1016.3
20260507124504 77 55 6.0 13.0 0.00 0.00 0.00 40 1016.5
20260507124003 77 65 7.0 13.0 0.00 0.00 0.00 39 1016.7
20260507123004 78 42 5.0 13.0 0.00 0.00 0.00 40 1016.8
20260507122504 77 37 5.0 12.0 0.00 0.00 0.00 42 1017.0
20260507121504 77 35 6.0 14.0 0.00 0.00 0.00 41 1017.1
20260507121004 77 40 6.0 12.0 0.00 0.00 0.00 39 1017.1
20260507120503 78 25 7.0 13.0 0.00 0.00 0.00 38 1017.1
20260507120005 78 29 6.0 13.0 0.00 0.00 0.00 37 1017.0
20260507115503 79 33 6.0 14.0 0.00 0.00 0.00 36 1017.0
20260507115004 79 24 7.0 14.0 0.00 0.00 0.00 35 1016.9
20260507114504 79 24 6.0 13.0 0.00 0.00 0.00 35 1016.9
20260507114003 79 20 7.0 15.0 0.00 0.00 0.00 36 1017.0
20260507113504 79 25 7.0 15.0 0.00 0.00 0.00 35 1017.0
20260507113005 79 44 7.0 13.0 0.00 0.00 0.00 36 1016.9
20260507112504 79 46 6.0 13.0 0.00 0.00 0.00 37 1016.9
20260507112004 79 40 5.0 12.0 0.00 0.00 0.00 36 1017.1
20260507111506 79 46 5.0 13.0 0.00 0.00 0.00 37 1017.2
20260507111004 79 31 6.0 14.0 0.00 0.00 0.00 37 1017.2
20260507110504 79 15 7.0 14.0 0.00 0.00 0.00 37 1017.1
20260507110005 79 30 6.0 14.0 0.00 0.00 0.00 35 1016.9
20260507105004 78 53 7.0 13.0 0.00 0.00 0.00 37 1017.0
20260507104504 78 54 7.0 13.0 0.00 0.00 0.00 36 1017.1
20260507104004 78 46 7.0 13.0 0.00 0.00 0.00 37 1017.2
20260507103504 78 48 7.0 13.0 0.00 0.00 0.00 35 1017.0
20260507103005 79 50 7.0 12.0 0.00 0.00 0.00 36 1016.9
20260507102504 78 45 7.0 13.0 0.00 0.00 0.00 40 1016.9
20260507102006 78 42 7.0 13.0 0.00 0.00 0.00 38 1017.0
20260507101507 78 39 6.0 12.0 0.00 0.00 0.00 40 1017.0